EFW568X EGKK-LPPR

Flight info

Callsign EFW568X
Flight time 1h 54m
Altitude 33000
Route NOVMA1X NOVMA L620 SAM M195 LORKU DCT EBOMO/N0457F350 DCT COQUE DCT KORUL DCT ELTEP/N0399F230 T328 ASPOR ASPOR3T
Aircraft A321/M-SDE3FGIJ1KRWXY/SB1

Departure

Time 2026-04-15 08:10
Airport London Gatwick Airport (EGKK)

Arrival

Time 2026-04-15 10:05
Airport Francisco de Sá Carneiro Airport (LPPR)
Time Latitude Longitude Altitude Speed Heading
2026-04-15 07:46 51.15566 -0.16998 212 ft 0 kts 166°
2026-04-15 07:46 51.15574 -0.17001 211 ft 0 kts 167°
2026-04-15 07:48 51.15575 -0.17001 211 ft 0 kts 167°
2026-04-15 07:54 51.15575 -0.17002 204 ft 0 kts 167°
2026-04-15 08:03 51.15578 -0.17003 214 ft 2 kts 167°
2026-04-15 08:03 51.15603 -0.17012 210 ft 4 kts 167°
2026-04-15 08:04 51.15629 -0.17019 214 ft 4 kts 189°
2026-04-15 08:04 51.15648 -0.17002 210 ft 4 kts 251°
2026-04-15 08:04 51.15653 -0.16970 212 ft 4 kts 257°
2026-04-15 08:04 51.15655 -0.16951 206 ft 0 kts 257°
2026-04-15 08:07 51.15655 -0.16953 206 ft 1 kts 257°
2026-04-15 08:07 51.15653 -0.16967 209 ft 2 kts 257°
2026-04-15 08:07 51.15649 -0.16997 213 ft 5 kts 258°
2026-04-15 08:08 51.15636 -0.17095 204 ft 13 kts 258°
2026-04-15 08:08 51.15606 -0.17274 206 ft 20 kts 240°
2026-04-15 08:08 51.15466 -0.17284 209 ft 21 kts 167°
2026-04-15 08:08 51.15345 -0.17241 213 ft 21 kts 168°
2026-04-15 08:09 51.15206 -0.17121 216 ft 24 kts 125°
2026-04-15 08:09 51.15218 -0.16922 213 ft 16 kts 78°
2026-04-15 08:09 51.15148 -0.16802 202 ft 22 kts 197°
2026-04-15 08:09 51.15084 -0.17053 208 ft 41 kts 259°
2026-04-15 08:10 51.14974 -0.17852 212 ft 107 kts 257°
2026-04-15 08:10 51.14768 -0.19323 215 ft 162 kts 257°
2026-04-15 08:10 51.14516 -0.21200 595 ft 178 kts 256°
2026-04-15 08:10 51.14284 -0.23168 1336 ft 179 kts 254°
2026-04-15 08:11 51.14025 -0.25105 1758 ft 188 kts 253°
2026-04-15 08:11 51.13708 -0.27262 1944 ft 213 kts 253°
2026-04-15 08:11 51.13350 -0.29680 2206 ft 236 kts 253°
2026-04-15 08:11 51.12969 -0.32305 2791 ft 246 kts 253°
2026-04-15 08:12 51.12594 -0.34953 3604 ft 247 kts 254°
2026-04-15 08:12 51.12217 -0.37645 3944 ft 250 kts 254°
2026-04-15 08:12 51.11839 -0.40346 4087 ft 252 kts 254°
2026-04-15 08:12 51.11418 -0.43043 4835 ft 250 kts 246°
2026-04-15 08:13 51.10681 -0.45550 5539 ft 251 kts 241°
2026-04-15 08:13 51.09905 -0.48045 6250 ft 253 kts 241°
2026-04-15 08:13 51.09118 -0.50565 6907 ft 256 kts 240°
2026-04-15 08:13 51.08320 -0.53111 7582 ft 258 kts 240°
2026-04-15 08:14 51.07515 -0.55679 8271 ft 260 kts 240°
2026-04-15 08:14 51.06706 -0.58262 8925 ft 262 kts 240°
2026-04-15 08:14 51.05892 -0.60870 9607 ft 265 kts 240°
2026-04-15 08:14 51.05228 -0.63624 10231 ft 271 kts 253°
2026-04-15 08:15 51.04841 -0.66572 10834 ft 273 kts 254°
2026-04-15 08:15 51.04449 -0.69531 11445 ft 275 kts 254°
2026-04-15 08:15 51.03969 -0.72516 11786 ft 285 kts 244°
2026-04-15 08:15 51.02830 -0.75151 11930 ft 299 kts 224°
2026-04-15 08:16 51.01294 -0.77528 12052 ft 317 kts 223°
2026-04-15 08:16 50.99688 -0.79978 12260 ft 330 kts 223°
2026-04-15 08:16 50.98012 -0.82529 12725 ft 336 kts 223°
2026-04-15 08:16 50.96321 -0.85102 13279 ft 339 kts 224°
2026-04-15 08:17 50.94616 -0.87701 13813 ft 341 kts 224°
2026-04-15 08:17 50.92899 -0.90317 14290 ft 344 kts 224°
2026-04-15 08:17 50.91168 -0.92966 14793 ft 347 kts 224°
2026-04-15 08:17 50.89427 -0.95623 15351 ft 347 kts 223°
2026-04-15 08:18 50.87682 -0.98276 15905 ft 349 kts 223°
2026-04-15 08:18 50.85928 -1.00940 16397 ft 350 kts 223°
2026-04-15 08:18 50.84165 -1.03621 16885 ft 353 kts 223°
2026-04-15 08:18 50.82391 -1.06322 17358 ft 355 kts 223°
2026-04-15 08:19 50.80605 -1.09038 17825 ft 357 kts 223°
2026-04-15 08:19 50.78808 -1.11763 18280 ft 359 kts 223°
2026-04-15 08:19 50.76998 -1.14501 18663 ft 361 kts 223°
2026-04-15 08:19 50.75176 -1.17254 19037 ft 363 kts 223°
2026-04-15 08:20 50.73342 -1.20021 19427 ft 365 kts 223°
2026-04-15 08:20 50.71503 -1.22798 19808 ft 367 kts 223°
2026-04-15 08:20 50.69653 -1.25588 20182 ft 369 kts 223°
2026-04-15 08:20 50.67789 -1.28398 20562 ft 371 kts 223°
2026-04-15 08:21 50.65917 -1.31212 20928 ft 373 kts 223°
2026-04-15 08:21 50.64033 -1.34035 21286 ft 375 kts 223°
2026-04-15 08:21 50.62162 -1.36837 21666 ft 377 kts 223°
2026-04-15 08:21 50.60261 -1.39682 22066 ft 379 kts 222°
2026-04-15 08:22 50.58348 -1.42541 22520 ft 378 kts 222°
2026-04-15 08:22 50.56436 -1.45391 22915 ft 379 kts 222°
2026-04-15 08:22 50.54514 -1.48255 23280 ft 381 kts 222°
2026-04-15 08:22 50.52583 -1.51129 23626 ft 383 kts 222°
2026-04-15 08:23 50.50644 -1.54018 23926 ft 385 kts 222°
2026-04-15 08:23 50.48696 -1.56913 24235 ft 386 kts 222°
2026-04-15 08:23 50.46741 -1.59819 24543 ft 387 kts 222°
2026-04-15 08:23 50.44783 -1.62731 24847 ft 389 kts 222°
2026-04-15 08:24 50.42814 -1.65651 25150 ft 390 kts 222°
2026-04-15 08:24 50.40839 -1.68572 25442 ft 391 kts 222°
2026-04-15 08:24 50.38862 -1.71492 25733 ft 392 kts 222°
2026-04-15 08:24 50.36897 -1.74393 26032 ft 393 kts 222°
2026-04-15 08:25 50.34901 -1.77339 26330 ft 394 kts 222°
2026-04-15 08:25 50.32901 -1.80286 26621 ft 396 kts 222°
2026-04-15 08:25 50.30892 -1.83238 26910 ft 397 kts 222°
2026-04-15 08:25 50.28878 -1.86194 27251 ft 397 kts 221°
2026-04-15 08:26 50.26863 -1.89144 27579 ft 397 kts 221°
2026-04-15 08:26 50.24848 -1.92091 27866 ft 398 kts 221°
2026-04-15 08:26 50.22827 -1.95050 28131 ft 399 kts 221°
2026-04-15 08:26 50.20800 -1.98014 28382 ft 400 kts 221°
2026-04-15 08:27 50.18769 -2.00982 28628 ft 401 kts 221°
2026-04-15 08:27 50.16735 -2.03957 28824 ft 402 kts 221°
2026-04-15 08:27 50.14692 -2.06941 29035 ft 403 kts 221°
2026-04-15 08:27 50.12643 -2.09923 29247 ft 404 kts 221°
2026-04-15 08:28 50.10587 -2.12905 29521 ft 403 kts 221°
2026-04-15 08:28 50.08537 -2.15871 29825 ft 401 kts 221°
2026-04-15 08:28 50.06498 -2.18822 30123 ft 400 kts 221°
2026-04-15 08:28 50.04466 -2.21767 30370 ft 399 kts 221°
2026-04-15 08:29 50.02438 -2.24703 30617 ft 398 kts 221°
2026-04-15 08:29 50.00410 -2.27636 30865 ft 397 kts 221°
2026-04-15 08:29 49.98389 -2.30548 31150 ft 395 kts 221°
2026-04-15 08:29 49.96399 -2.33409 31393 ft 394 kts 221°
2026-04-15 08:30 49.94376 -2.36280 31604 ft 393 kts 218°
2026-04-15 08:30 49.92156 -2.38732 31810 ft 392 kts 212°
2026-04-15 08:30 49.89841 -2.40955 32004 ft 391 kts 212°
2026-04-15 08:30 49.87524 -2.43176 32240 ft 391 kts 212°
2026-04-15 08:31 49.85211 -2.45395 32376 ft 392 kts 212°
2026-04-15 08:31 49.82885 -2.47625 32506 ft 393 kts 212°
2026-04-15 08:31 49.80561 -2.49855 32636 ft 394 kts 212°
2026-04-15 08:31 49.78220 -2.52096 32767 ft 395 kts 212°
2026-04-15 08:32 49.75879 -2.54328 32900 ft 395 kts 212°
2026-04-15 08:32 49.73538 -2.56561 33050 ft 396 kts 212°
2026-04-15 08:32 49.71188 -2.58808 33050 ft 397 kts 212°
2026-04-15 08:33 49.66518 -2.63275 33079 ft 398 kts 212°
2026-04-15 08:33 49.61802 -2.67757 33084 ft 398 kts 212°
2026-04-15 08:34 49.57089 -2.72226 33081 ft 397 kts 212°
2026-04-15 08:34 49.52380 -2.76674 33085 ft 397 kts 212°
2026-04-15 08:35 49.47664 -2.81119 33078 ft 398 kts 212°
2026-04-15 08:35 49.42947 -2.85569 33088 ft 398 kts 212°
2026-04-15 08:36 49.38224 -2.90025 33090 ft 398 kts 212°
2026-04-15 08:36 49.33490 -2.94458 33099 ft 399 kts 212°
2026-04-15 08:37 49.28752 -2.98877 33105 ft 399 kts 212°
2026-04-15 08:37 49.24012 -3.03294 33081 ft 399 kts 212°
2026-04-15 08:38 49.19271 -3.07706 33098 ft 399 kts 212°
2026-04-15 08:38 49.14538 -3.12104 33106 ft 396 kts 212°
2026-04-15 08:39 49.09831 -3.16469 33104 ft 396 kts 212°
2026-04-15 08:39 49.05148 -3.20809 33099 ft 397 kts 212°
2026-04-15 08:40 49.00424 -3.25160 33087 ft 397 kts 212°
2026-04-15 08:40 48.95689 -3.29519 33096 ft 398 kts 212°
2026-04-15 08:41 48.90956 -3.33876 33095 ft 398 kts 212°
2026-04-15 08:41 48.86211 -3.38227 33104 ft 398 kts 212°
2026-04-15 08:42 48.81466 -3.42558 33106 ft 398 kts 212°
2026-04-15 08:42 48.76715 -3.46886 33102 ft 398 kts 212°
2026-04-15 08:43 48.71979 -3.51198 33094 ft 395 kts 212°
2026-04-15 08:43 48.67277 -3.55474 33088 ft 394 kts 212°
2026-04-15 08:44 48.62570 -3.59745 33093 ft 395 kts 212°
2026-04-15 08:44 48.57882 -3.63986 33046 ft 396 kts 212°
2026-04-15 08:45 48.53149 -3.68262 33059 ft 397 kts 212°
2026-04-15 08:45 48.48402 -3.72527 33069 ft 398 kts 212°
2026-04-15 08:46 48.43641 -3.76793 33081 ft 398 kts 212°
2026-04-15 08:46 48.38881 -3.81069 33084 ft 398 kts 212°
2026-04-15 08:47 48.34116 -3.85329 33063 ft 399 kts 212°
2026-04-15 08:47 48.30160 -3.88839 33088 ft 394 kts 212°
2026-04-15 08:48 48.25437 -3.93015 33082 ft 395 kts 212°
2026-04-15 08:48 48.20719 -3.97255 33102 ft 396 kts 212°
2026-04-15 08:49 48.15219 -4.02159 33102 ft 396 kts 212°
2026-04-15 08:49 48.11243 -4.05680 33119 ft 396 kts 212°
2026-04-15 08:50 48.06494 -4.09872 33129 ft 396 kts 212°
2026-04-15 08:50 48.01772 -4.14028 33131 ft 396 kts 212°
2026-04-15 08:51 47.97018 -4.18203 33135 ft 396 kts 212°
2026-04-15 08:51 47.92255 -4.22386 33109 ft 396 kts 212°
2026-04-15 08:52 47.87504 -4.26543 33149 ft 394 kts 212°
2026-04-15 08:52 47.82772 -4.30669 33129 ft 393 kts 212°
2026-04-15 08:53 47.78122 -4.34846 33125 ft 393 kts 213°
2026-04-15 08:53 47.73499 -4.39188 33126 ft 393 kts 214°
2026-04-15 08:54 47.68865 -4.43529 33115 ft 394 kts 214°
2026-04-15 08:54 47.64209 -4.47837 33123 ft 394 kts 213°
2026-04-15 08:55 47.59543 -4.52119 33132 ft 394 kts 213°
2026-04-15 08:55 47.54875 -4.56398 33128 ft 395 kts 213°
2026-04-15 08:56 47.50211 -4.60674 33142 ft 395 kts 213°
2026-04-15 08:56 47.45574 -4.64926 33112 ft 395 kts 214°
2026-04-15 08:57 47.40896 -4.69203 33129 ft 396 kts 214°
2026-04-15 08:57 47.36204 -4.73471 33137 ft 396 kts 213°
2026-04-15 08:58 47.31509 -4.77729 33142 ft 396 kts 213°
2026-04-15 08:58 47.24467 -4.84121 33125 ft 396 kts 214°
2026-04-15 08:59 47.19770 -4.88376 33140 ft 397 kts 214°
2026-04-15 08:59 47.15088 -4.92605 33145 ft 397 kts 214°
2026-04-15 09:00 47.10388 -4.96835 33135 ft 394 kts 214°
2026-04-15 09:00 47.05718 -5.01025 33096 ft 393 kts 214°
2026-04-15 09:01 47.01055 -5.05228 33111 ft 394 kts 214°
2026-04-15 09:01 46.96379 -5.09448 33132 ft 395 kts 214°
2026-04-15 09:02 46.91679 -5.13664 33147 ft 396 kts 214°
2026-04-15 09:02 46.86978 -5.17864 33153 ft 396 kts 214°
2026-04-15 09:03 46.82296 -5.22034 33129 ft 397 kts 214°
2026-04-15 09:03 46.77577 -5.26238 33143 ft 398 kts 214°
2026-04-15 09:04 46.72852 -5.30436 33154 ft 396 kts 214°
2026-04-15 09:04 46.68152 -5.34608 33154 ft 396 kts 214°
2026-04-15 09:05 46.63446 -5.38786 33152 ft 396 kts 214°
2026-04-15 09:05 46.58736 -5.42951 33160 ft 397 kts 214°
2026-04-15 09:06 46.54015 -5.47106 33163 ft 397 kts 214°
2026-04-15 09:06 46.49290 -5.51259 33163 ft 397 kts 214°
2026-04-15 09:07 46.44560 -5.55422 33166 ft 397 kts 214°
2026-04-15 09:07 46.39862 -5.59540 33140 ft 398 kts 214°
2026-04-15 09:08 46.35121 -5.63679 33174 ft 398 kts 214°
2026-04-15 09:08 46.30367 -5.67827 33175 ft 399 kts 214°
2026-04-15 09:09 46.25616 -5.71970 33177 ft 399 kts 214°
2026-04-15 09:09 46.20856 -5.76100 33154 ft 399 kts 214°
2026-04-15 09:10 46.16097 -5.80232 33170 ft 400 kts 214°
2026-04-15 09:10 46.11326 -5.84366 33172 ft 400 kts 214°
2026-04-15 09:11 46.06556 -5.88486 33174 ft 400 kts 214°
2026-04-15 09:11 46.01783 -5.92602 33176 ft 400 kts 214°
2026-04-15 09:12 45.97035 -5.96691 33186 ft 401 kts 215°
2026-04-15 09:12 45.92247 -6.00803 33187 ft 401 kts 214°
2026-04-15 09:13 45.87452 -6.04906 33188 ft 401 kts 215°
2026-04-15 09:13 45.82661 -6.08997 33190 ft 401 kts 214°
2026-04-15 09:14 45.77871 -6.13086 33157 ft 401 kts 214°
2026-04-15 09:14 45.73069 -6.17176 33175 ft 402 kts 214°
2026-04-15 09:15 45.68260 -6.21262 33188 ft 402 kts 214°
2026-04-15 09:15 45.63441 -6.25349 33194 ft 403 kts 214°
2026-04-15 09:16 45.58678 -6.29384 33128 ft 398 kts 215°
2026-04-15 09:16 45.53906 -6.33424 33141 ft 399 kts 215°
2026-04-15 09:17 45.49112 -6.37466 33167 ft 401 kts 215°
2026-04-15 09:17 45.44297 -6.41510 33177 ft 402 kts 215°
2026-04-15 09:18 45.39476 -6.45567 33165 ft 403 kts 215°
2026-04-15 09:18 45.34646 -6.49616 33186 ft 403 kts 215°
2026-04-15 09:19 45.29802 -6.53663 33197 ft 404 kts 215°
2026-04-15 09:19 45.24988 -6.57680 33217 ft 404 kts 215°
2026-04-15 09:20 45.20158 -6.61700 33201 ft 402 kts 215°
2026-04-15 09:20 45.15338 -6.65713 33168 ft 403 kts 215°
2026-04-15 09:21 45.10497 -6.69735 33187 ft 404 kts 215°
2026-04-15 09:21 45.05644 -6.73758 33204 ft 405 kts 215°
2026-04-15 09:22 45.00783 -6.77781 33213 ft 405 kts 215°
2026-04-15 09:22 44.95910 -6.81803 33189 ft 406 kts 215°
2026-04-15 09:23 44.91031 -6.85810 33204 ft 406 kts 215°
2026-04-15 09:23 44.86144 -6.89820 33231 ft 407 kts 215°
2026-04-15 09:24 44.80922 -6.93035 33226 ft 417 kts 202°
2026-04-15 09:24 44.75340 -6.95282 33200 ft 417 kts 202°
2026-04-15 09:25 44.69750 -6.97533 33211 ft 418 kts 202°
2026-04-15 09:25 44.64188 -6.99773 33217 ft 419 kts 202°
2026-04-15 09:26 44.58585 -7.02024 33226 ft 419 kts 202°
2026-04-15 09:26 44.52974 -7.04271 33229 ft 419 kts 202°
2026-04-15 09:27 44.47356 -7.06519 33230 ft 419 kts 202°
2026-04-15 09:27 44.41746 -7.08755 33244 ft 419 kts 202°
2026-04-15 09:28 44.36130 -7.10990 33211 ft 419 kts 202°
2026-04-15 09:28 44.30518 -7.13225 33231 ft 420 kts 202°
2026-04-15 09:29 44.24939 -7.15446 33234 ft 420 kts 202°
2026-04-15 09:29 44.19274 -7.17692 33221 ft 420 kts 202°
2026-04-15 09:30 44.13684 -7.19892 33235 ft 420 kts 202°
2026-04-15 09:30 44.08049 -7.22105 33253 ft 420 kts 202°
2026-04-15 09:31 44.02418 -7.24320 33249 ft 421 kts 202°
2026-04-15 09:31 43.96771 -7.26542 33223 ft 421 kts 202°
2026-04-15 09:32 43.91129 -7.28758 33233 ft 421 kts 202°
2026-04-15 09:32 43.85522 -7.30955 33240 ft 422 kts 202°
2026-04-15 09:33 43.79875 -7.33164 33243 ft 422 kts 202°
2026-04-15 09:33 43.74227 -7.35364 33238 ft 421 kts 202°
2026-04-15 09:34 43.68588 -7.37557 33240 ft 421 kts 202°
2026-04-15 09:34 43.62952 -7.39743 33256 ft 421 kts 202°
2026-04-15 09:35 43.57317 -7.41928 33226 ft 420 kts 202°
2026-04-15 09:35 43.51692 -7.44109 33252 ft 420 kts 202°
2026-04-15 09:36 43.46068 -7.46278 33266 ft 419 kts 202°
2026-04-15 09:36 43.40445 -7.48430 33269 ft 419 kts 202°
2026-04-15 09:37 43.34833 -7.50583 33249 ft 419 kts 202°
2026-04-15 09:37 43.29216 -7.52738 33269 ft 419 kts 202°
2026-04-15 09:38 43.23642 -7.54879 33271 ft 419 kts 202°
2026-04-15 09:38 43.18035 -7.57032 33255 ft 418 kts 202°
2026-04-15 09:39 43.12430 -7.59170 33270 ft 418 kts 202°
2026-04-15 09:39 43.06828 -7.61300 33286 ft 417 kts 202°
2026-04-15 09:40 43.01238 -7.63422 33287 ft 417 kts 202°
2026-04-15 09:40 42.95689 -7.65532 33269 ft 417 kts 202°
2026-04-15 09:41 42.90103 -7.67649 33285 ft 416 kts 202°
2026-04-15 09:41 42.84521 -7.69757 33291 ft 416 kts 202°
2026-04-15 09:42 42.78940 -7.71863 33290 ft 416 kts 202°
2026-04-15 09:42 42.73352 -7.73967 32205 ft 421 kts 202°
2026-04-15 09:43 42.71475 -7.74676 31461 ft 425 kts 202°
2026-04-15 09:43 42.67662 -7.76108 30552 ft 421 kts 202°
2026-04-15 09:43 42.65803 -7.76801 30204 ft 417 kts 202°
2026-04-15 09:43 42.63030 -7.77832 29654 ft 410 kts 202°
2026-04-15 09:44 42.60302 -7.78853 29316 ft 404 kts 202°
2026-04-15 09:44 42.57601 -7.79865 29046 ft 402 kts 202°
2026-04-15 09:44 42.54907 -7.80878 28774 ft 401 kts 202°
2026-04-15 09:44 42.52229 -7.81886 28503 ft 398 kts 202°
2026-04-15 09:45 42.49577 -7.82878 28059 ft 391 kts 202°
2026-04-15 09:45 42.46975 -7.83850 27580 ft 385 kts 202°
2026-04-15 09:45 42.44413 -7.84806 27102 ft 379 kts 202°
2026-04-15 09:45 42.41919 -7.85736 26644 ft 374 kts 202°
2026-04-15 09:46 42.39427 -7.86668 26189 ft 369 kts 202°
2026-04-15 09:46 42.36964 -7.87592 25738 ft 365 kts 202°
2026-04-15 09:46 42.34526 -7.88511 25297 ft 362 kts 202°
2026-04-15 09:46 42.32111 -7.89418 24857 ft 359 kts 202°
2026-04-15 09:47 42.29706 -7.90317 24440 ft 359 kts 202°
2026-04-15 09:47 42.27300 -7.91211 24015 ft 358 kts 202°
2026-04-15 09:47 42.24903 -7.92099 23560 ft 356 kts 202°
2026-04-15 09:47 42.22520 -7.92982 23148 ft 355 kts 202°
2026-04-15 09:48 42.20148 -7.93862 22747 ft 352 kts 202°
2026-04-15 09:48 42.17793 -7.94734 22356 ft 350 kts 202°
2026-04-15 09:48 42.15455 -7.95602 21962 ft 348 kts 202°
2026-04-15 09:48 42.13132 -7.96466 21571 ft 345 kts 202°
2026-04-15 09:49 42.10822 -7.97322 21173 ft 344 kts 202°
2026-04-15 09:49 42.08522 -7.98171 20794 ft 343 kts 202°
2026-04-15 09:49 42.06230 -7.99018 20387 ft 340 kts 202°
2026-04-15 09:49 42.03992 -7.99991 19725 ft 337 kts 212°
2026-04-15 09:50 42.02094 -8.01786 18885 ft 334 kts 229°
2026-04-15 09:50 42.00516 -8.04091 18154 ft 336 kts 231°
2026-04-15 09:50 41.98964 -8.06393 17714 ft 328 kts 231°
2026-04-15 09:50 41.97446 -8.08639 17294 ft 321 kts 231°
2026-04-15 09:51 41.95975 -8.10812 16886 ft 315 kts 231°
2026-04-15 09:51 41.94512 -8.12975 16487 ft 311 kts 231°
2026-04-15 09:51 41.93071 -8.15105 16084 ft 306 kts 231°
2026-04-15 09:51 41.91650 -8.17204 15687 ft 303 kts 231°
2026-04-15 09:52 41.90239 -8.19288 15277 ft 301 kts 231°
2026-04-15 09:52 41.88825 -8.21372 14887 ft 301 kts 231°
2026-04-15 09:52 41.87410 -8.23446 14497 ft 301 kts 231°
2026-04-15 09:52 41.86000 -8.25508 14102 ft 299 kts 231°
2026-04-15 09:53 41.84597 -8.27564 13676 ft 298 kts 231°
2026-04-15 09:53 41.83200 -8.29615 13287 ft 297 kts 231°
2026-04-15 09:53 41.81810 -8.31658 12877 ft 296 kts 231°
2026-04-15 09:53 41.80424 -8.33692 12486 ft 295 kts 231°
2026-04-15 09:54 41.79050 -8.35708 12098 ft 292 kts 231°
2026-04-15 09:54 41.77689 -8.37703 11696 ft 288 kts 230°
2026-04-15 09:54 41.76338 -8.39681 11320 ft 287 kts 230°
2026-04-15 09:54 41.74993 -8.41648 10936 ft 285 kts 230°
2026-04-15 09:55 41.73668 -8.43579 10718 ft 276 kts 230°
2026-04-15 09:55 41.72385 -8.45445 10462 ft 270 kts 229°
2026-04-15 09:55 41.71095 -8.47329 9645 ft 281 kts 229°
2026-04-15 09:55 41.69752 -8.49297 8657 ft 297 kts 230°
2026-04-15 09:56 41.68321 -8.51390 7606 ft 312 kts 230°
2026-04-15 09:56 41.66816 -8.53582 6512 ft 327 kts 230°
2026-04-15 09:56 41.63630 -8.58212 4659 ft 338 kts 229°
2026-04-15 09:57 41.62073 -8.60464 4422 ft 321 kts 229°
2026-04-15 09:57 41.60602 -8.62595 4267 ft 302 kts 228°
2026-04-15 09:57 41.59254 -8.64533 4190 ft 267 kts 228°
2026-04-15 09:57 41.58012 -8.66327 4206 ft 261 kts 229°
2026-04-15 09:58 41.56784 -8.68113 4214 ft 261 kts 229°
2026-04-15 09:58 41.55548 -8.69902 4203 ft 261 kts 229°
2026-04-15 09:58 41.54319 -8.71686 4204 ft 260 kts 229°
2026-04-15 09:58 41.53008 -8.73333 4201 ft 256 kts 216°
2026-04-15 09:59 41.51469 -8.74313 4198 ft 240 kts 197°
2026-04-15 09:59 41.49865 -8.74600 4206 ft 234 kts 181°
2026-04-15 09:59 41.48245 -8.74305 4125 ft 231 kts 171°
2026-04-15 09:59 41.46716 -8.73894 3903 ft 220 kts 171°
2026-04-15 10:00 41.45248 -8.73501 3658 ft 209 kts 171°
2026-04-15 10:00 41.43859 -8.73133 3400 ft 198 kts 171°
2026-04-15 10:00 41.42537 -8.72785 3161 ft 190 kts 170°
2026-04-15 10:00 41.41272 -8.72450 2935 ft 181 kts 171°
2026-04-15 10:01 41.40058 -8.72130 2716 ft 175 kts 170°
2026-04-15 10:01 41.38889 -8.71826 2511 ft 168 kts 171°
2026-04-15 10:01 41.37771 -8.71531 2321 ft 159 kts 170°
2026-04-15 10:01 41.36714 -8.71254 2111 ft 149 kts 169°
2026-04-15 10:02 41.35716 -8.70989 1929 ft 145 kts 169°
2026-04-15 10:02 41.34735 -8.70734 1758 ft 143 kts 169°
2026-04-15 10:02 41.33763 -8.70478 1581 ft 142 kts 169°
2026-04-15 10:02 41.32803 -8.70224 1408 ft 141 kts 169°
2026-04-15 10:03 41.31845 -8.69970 1224 ft 140 kts 169°
2026-04-15 10:03 41.30898 -8.69720 1056 ft 141 kts 170°
2026-04-15 10:03 41.29941 -8.69472 886 ft 140 kts 168°
2026-04-15 10:03 41.28986 -8.69220 722 ft 139 kts 168°
2026-04-15 10:04 41.28039 -8.68973 556 ft 138 kts 169°
2026-04-15 10:04 41.27094 -8.68728 412 ft 138 kts 168°
2026-04-15 10:04 41.26152 -8.68469 233 ft 139 kts 169°
2026-04-15 10:04 41.25247 -8.68243 183 ft 119 kts 169°
2026-04-15 10:05 41.24592 -8.68071 209 ft 71 kts 169°
2026-04-15 10:05 41.24221 -8.67975 218 ft 48 kts 169°
2026-04-15 10:05 41.23918 -8.67893 222 ft 41 kts 169°
2026-04-15 10:05 41.23658 -8.67825 233 ft 34 kts 169°
2026-04-15 10:06 41.23603 -8.67691 233 ft 14 kts 78°
2026-04-15 10:06 41.23620 -8.67558 234 ft 15 kts 81°
2026-04-15 10:06 41.23625 -8.67522 234 ft 0 kts 79°
2026-04-15 10:08 41.23627 -8.67510 234 ft 3 kts 79°
2026-04-15 10:08 41.23627 -8.67473 237 ft 5 kts 96°
2026-04-15 10:08 41.23605 -8.67426 238 ft 8 kts 139°
2026-04-15 10:09 41.23545 -8.67384 240 ft 11 kts 132°
2026-04-15 10:09 41.23511 -8.67299 244 ft 0 kts 113°
2026-04-15 10:09 41.23509 -8.67291 245 ft 0 kts 114°